Weather History for Haines, AK

Change the Weather History Date:

Saturday, May 17, 2014

  Actual Average Record
Temperature  
Mean Temperature 62 °F -  
Max Temperature 73 °F 55 °F 73 °F (2014)
Min Temperature 51 °F 40 °F 30 °F (2003)
Degree Days  
Heating Degree Days 3    
Growing Degree Days 12 (Base 50)    
Moisture  
Dew Point 39 °F    
Average Humidity 47    
Maximum Humidity 68    
Minimum Humidity 25    
Precipitation  
Precipitation 0.00 in - - ()
Sea Level Pressure  
Sea Level Pressure 29.88 in    
Wind  
Wind Speed 11 mph (SE)    
Max Wind Speed 17 mph    
Max Gust Speed 20 mph    
Visibility 10 miles    
Events      
Averages and records for this station are not official NWS values.
T = Trace of Precipitation, MM = Missing Value Source: NWS Daily Summary

Daily Weather History Graph

Daily Weather History Graph

Search for Another Location

Airport:

Trip Planner

Search our weather history database for the weather conditions in past years. The results will help you decide how hot, cold, wet, or windy it might be!

Date:

Astronomy

May. 17, 2014 Rise Set
Actual Time 4:24 AM AKDT 9:33 PM AKDT
Civil Twilight 3:23 AM AKDT 10:36 PM AKDT
Nautical Twilight 1:30 AM AKDT 12:26 AM AKDT
Astronomical Twilight Sun does not rise Sun does not rise
Moon No Moon Rise 7:20 AM AKDT (5/17)
Length of Visible Light 19h 13m
Length of Day
17h 08m
Waning Gibbous, 88% of the Moon is Illuminated
May 17
Waning Gibbous
May 21
Last Quarter
May 28
New
Jun 5
First Quarter
Jun 12
Full

Hourly Weather History & Observations

Time (AKDT) Temp. Dew Point Humidity Pressure Visibility Wind Dir Wind Speed Gust Speed Precip Events Conditions
12:54 AM 60.1 °F 30.9 °F 33% 29.92 in 10.0 mi NW 11.5 mph 19.6 mph N/A   Clear
1:54 AM 55.0 °F 35.1 °F 47% 29.92 in 10.0 mi WNW 15.0 mph - N/A   Clear
2:54 AM 54.0 °F 36.0 °F 51% 29.92 in 10.0 mi WNW 11.5 mph - N/A   Clear
3:54 AM 55.0 °F 34.0 °F 45% 29.93 in 10.0 mi WNW 12.7 mph - N/A   Clear
4:54 AM 54.0 °F 35.1 °F 49% 29.92 in 10.0 mi WNW 13.8 mph - N/A   Clear
5:54 AM 53.1 °F 35.1 °F 50% 29.93 in 10.0 mi WNW 17.3 mph - N/A   Clear
6:54 AM 54.0 °F 35.1 °F 49% 29.94 in 10.0 mi WNW 13.8 mph - N/A   Clear
7:54 AM 59.0 °F 35.1 °F 41% 29.93 in 10.0 mi WNW 15.0 mph - N/A   Clear
8:54 AM 64.0 °F 36.0 °F 35% 29.92 in 10.0 mi WNW 13.8 mph - N/A   Clear
9:54 AM 66.9 °F 35.1 °F 31% 29.91 in 10.0 mi WNW 13.8 mph - N/A   Clear
10:54 AM 71.1 °F 33.1 °F 25% 29.91 in 10.0 mi NW 8.1 mph - N/A   Clear
11:54 AM 64.0 °F 46.0 °F 52% 29.89 in 10.0 mi SE 9.2 mph - N/A   Clear
12:54 PM 62.1 °F 46.0 °F 56% 29.89 in 10.0 mi SE 10.4 mph - N/A   Clear
1:54 PM 62.1 °F 44.1 °F 52% 29.89 in 10.0 mi ESE 6.9 mph - N/A   Clear
2:54 PM 62.1 °F 45.0 °F 53% 29.87 in 10.0 mi SE 5.8 mph - N/A   Partly Cloudy
3:54 PM 62.1 °F 39.9 °F 44% 29.86 in 10.0 mi SE 4.6 mph - N/A   Scattered Clouds
4:54 PM 64.0 °F 39.0 °F 40% 29.85 in 10.0 mi ESE 3.5 mph - N/A   Mostly Cloudy
5:54 PM 64.0 °F 37.9 °F 38% 29.84 in 10.0 mi ESE 4.6 mph - N/A   Mostly Cloudy
6:54 PM 66.0 °F 39.0 °F 37% 29.83 in 10.0 mi SE 6.9 mph - N/A   Partly Cloudy
7:54 PM 61.0 °F 43.0 °F 52% 29.83 in 10.0 mi Calm Calm - N/A   Clear
8:54 PM 55.9 °F 44.1 °F 64% 29.83 in 10.0 mi East 5.8 mph - N/A   Clear
9:54 PM 55.0 °F 41.0 °F 59% 29.83 in 10.0 mi East 4.6 mph - N/A   Clear
10:54 PM 55.0 °F 39.0 °F 55% 29.84 in 10.0 mi East 6.9 mph - N/A   Clear
11:54 PM 51.1 °F 41.0 °F 68% 29.84 in 10.0 mi East 5.8 mph - N/A   Clear